Weather History for KI39 - June, 2014

Change the Weather History Date:

Sunday, June 29, 2014

  Actual Average (KLOZ) Record (KLOZ)
Temperature  
Mean Temperature 76 °F 76 °F  
Max Temperature 84 °F 86 °F 105 °F (2012)
Min Temperature 69 °F 65 °F 52 °F (1973)
Degree Days  
Heating Degree Days 0 0  
Month to date heating degree days 7  
Since 1 June heating degree days 7  
Since 1 July heating degree days 4203  
Cooling Degree Days 12 11  
Growing Degree Days 26 (Base 50)    
Moisture  
Dew Point 67 °F    
Average Humidity 75    
Maximum Humidity 88    
Minimum Humidity 54    
Precipitation  
Precipitation 0.00 in 0.15 in 1.13 in (1986)
Sea Level Pressure  
Sea Level Pressure 30.14 in    
Wind  
Wind Speed 6 mph (SSW)    
Max Wind Speed 13 mph    
Max Gust Speed 22 mph    
Visibility 10 miles    
Events      
T = Trace of Precipitation, MM = Missing Value Source: NWS Daily Summary

Daily Weather History Graph

Daily Weather History Graph

Search for Another Location

Airport or City:

Trip Planner

Search our weather history database for the weather conditions in past years. The results will help you decide how hot, cold, wet, or windy it might be!

Date:

Astronomy

Jun. 29, 2014 Rise Set
Actual Time 6:18 AM EDT 9:02 PM EDT
Civil Twilight 5:47 AM EDT 9:34 PM EDT
Nautical Twilight 5:08 AM EDT 10:12 PM EDT
Astronomical Twilight 4:24 AM EDT 10:56 PM EDT
Moon 8:32 AM EDT (6/29) 10:26 PM EDT (6/29)
Length of Visible Light 15h 46m
Length of Day
14h 44m
Waxing Crescent, 5% of the Moon is Illuminated
Jun 29
Waxing Crescent
Jul 5
First Quarter
Jul 12
Full
Jul 18
Last Quarter
Jul 26
New

Hourly Weather History & Observations

Time (EDT) Temp. Heat Index Dew Point Humidity Pressure Visibility Wind Dir Wind Speed Gust Speed Precip Events Conditions
12:15 AM 71.6 °F - 68.0 °F 88% 30.17 in 10.0 mi South 4.6 mph - N/A   Clear
12:35 AM 71.6 °F - 68.0 °F 88% 30.18 in 10.0 mi South 4.6 mph - N/A   Clear
12:55 AM 71.6 °F - 68.0 °F 88% 30.18 in 10.0 mi South 5.8 mph - N/A   Clear
1:15 AM 71.6 °F - 66.2 °F 83% 30.17 in 10.0 mi South 4.6 mph - N/A   Clear
1:35 AM 71.6 °F - 66.2 °F 83% 30.17 in 10.0 mi South 5.8 mph - N/A   Clear
1:55 AM 71.6 °F - 66.2 °F 83% 30.16 in 10.0 mi South 6.9 mph - N/A   Clear
2:15 AM 71.6 °F - 66.2 °F 83% 30.17 in 10.0 mi South 5.8 mph - N/A   Clear
2:35 AM 71.6 °F - 66.2 °F 83% 30.17 in 10.0 mi SSW 6.9 mph - N/A   Clear
2:55 AM 71.6 °F - 66.2 °F 83% 30.16 in 10.0 mi SSW 8.1 mph - N/A   Clear
3:15 AM 69.8 °F - 66.2 °F 88% 30.16 in 10.0 mi South 6.9 mph - N/A   Clear
3:35 AM 69.8 °F - 66.2 °F 88% 30.15 in 10.0 mi South 5.8 mph - N/A   Scattered Clouds
3:55 AM 69.8 °F - 66.2 °F 88% 30.15 in 10.0 mi South 3.5 mph - N/A   Clear
4:15 AM 69.8 °F - 66.2 °F 88% 30.15 in 10.0 mi South 4.6 mph - N/A   Clear
4:35 AM 69.8 °F - 66.2 °F 88% 30.14 in 10.0 mi South 5.8 mph - N/A   Clear
4:55 AM 69.8 °F - 66.2 °F 88% 30.13 in 10.0 mi South 4.6 mph - N/A   Clear
5:15 AM 69.8 °F - 66.2 °F 88% 30.13 in 10.0 mi South 4.6 mph - N/A   Clear
5:35 AM 69.8 °F - 66.2 °F 88% 30.13 in 10.0 mi SSE 4.6 mph - N/A   Clear
5:55 AM 69.8 °F - 66.2 °F 88% 30.12 in 10.0 mi SSE 4.6 mph - N/A   Clear
6:15 AM 69.8 °F - 66.2 °F 88% 30.13 in 10.0 mi SSE 4.6 mph - N/A   Clear
6:35 AM 69.8 °F - 66.2 °F 88% 30.13 in 10.0 mi SSE 3.5 mph - N/A   Clear
6:55 AM 69.8 °F - 66.2 °F 88% 30.13 in 10.0 mi SSE 5.8 mph - N/A   Clear
7:15 AM 69.8 °F - 66.2 °F 88% 30.14 in 10.0 mi South 3.5 mph - N/A   Clear
7:35 AM 71.6 °F - 66.2 °F 83% 30.16 in 10.0 mi SSW 5.8 mph - N/A   Clear
7:55 AM 71.6 °F - 66.2 °F 83% 30.16 in 10.0 mi South 9.2 mph - N/A   Scattered Clouds
8:15 AM 73.4 °F - 68.0 °F 83% 30.17 in 10.0 mi SSW 10.4 mph - N/A   Scattered Clouds
8:35 AM 73.4 °F - 68.0 °F 83% 30.18 in 10.0 mi SSW 9.2 mph - N/A   Clear
8:55 AM 75.2 °F - 68.0 °F 78% 30.18 in 10.0 mi SSW 8.1 mph - N/A   Clear
9:15 AM 75.2 °F - 68.0 °F 78% 30.18 in 10.0 mi SSW 9.2 mph - N/A   Clear
9:35 AM 75.2 °F - 68.0 °F 78% 30.19 in 10.0 mi SSW 8.1 mph - N/A   Scattered Clouds
9:55 AM 77.0 °F - 66.2 °F 69% 30.18 in 10.0 mi SW 8.1 mph - N/A   Clear
10:15 AM 78.8 °F - 66.2 °F 65% 30.18 in 10.0 mi SW 10.4 mph - N/A   Clear
10:35 AM 78.8 °F - 66.2 °F 65% 30.18 in 10.0 mi SW 10.4 mph - N/A   Clear
10:55 AM 80.6 °F 82.7 °F 66.2 °F 61% 30.18 in 10.0 mi WSW 12.7 mph 16.1 mph N/A   Mostly Cloudy
11:15 AM 80.6 °F 82.7 °F 66.2 °F 61% 30.18 in 10.0 mi SW 9.2 mph - N/A   Mostly Cloudy
11:35 AM 78.8 °F - 66.2 °F 65% 30.18 in 10.0 mi WSW 8.1 mph - N/A   Overcast
11:55 AM 80.6 °F 82.7 °F 66.2 °F 61% 30.18 in 10.0 mi SW 9.2 mph - N/A   Overcast
12:15 PM 80.6 °F 82.7 °F 66.2 °F 61% 30.17 in 10.0 mi West 4.6 mph - N/A   Overcast
12:35 PM 82.4 °F 83.9 °F 64.4 °F 54% 30.17 in 10.0 mi West 6.9 mph - N/A   Overcast
1:15 PM 84.2 °F 86.6 °F 66.2 °F 55% 30.16 in 10.0 mi West 6.9 mph - N/A   Scattered Clouds
1:35 PM 84.2 °F 86.6 °F 66.2 °F 55% 30.15 in 10.0 mi WSW 9.2 mph - N/A   Mostly Cloudy
1:55 PM 82.4 °F 84.6 °F 66.2 °F 58% 30.15 in 10.0 mi West 8.1 mph - N/A   Mostly Cloudy
2:15 PM 77.0 °F - 68.0 °F 74% 30.15 in 5.0 mi West 4.6 mph - N/A   Overcast
2:35 PM 71.6 °F - 68.0 °F 88% 30.15 in 10.0 mi WSW 12.7 mph 21.9 mph N/A   Overcast
2:55 PM 73.4 °F - 68.0 °F 83% 30.14 in 10.0 mi WSW 4.6 mph - N/A   Mostly Cloudy
3:15 PM 77.0 °F - 68.0 °F 74% 30.13 in 10.0 mi SW 5.8 mph - N/A   Overcast
3:35 PM 78.8 °F - 68.0 °F 69% 30.13 in 10.0 mi SW 8.1 mph - N/A   Overcast
3:55 PM 82.4 °F 85.4 °F 68.0 °F 62% 30.13 in 10.0 mi SSW 10.4 mph - N/A   Scattered Clouds
4:15 PM 80.6 °F 83.2 °F 68.0 °F 65% 30.12 in 10.0 mi WSW 8.1 mph - N/A   Scattered Clouds
4:35 PM 82.4 °F 84.6 °F 66.2 °F 58% 30.12 in 10.0 mi SW 6.9 mph - N/A   Scattered Clouds
4:55 PM 84.2 °F 86.6 °F 66.2 °F 55% 30.11 in 10.0 mi SW 12.7 mph 17.3 mph N/A   Scattered Clouds
5:15 PM 82.4 °F 84.6 °F 66.2 °F 58% 30.10 in 10.0 mi SSW 10.4 mph 17.3 mph N/A   Scattered Clouds
5:35 PM 82.4 °F 85.4 °F 68.0 °F 62% 30.10 in 10.0 mi South 10.4 mph - N/A   Mostly Cloudy
5:55 PM 80.6 °F 83.2 °F 68.0 °F 65% 30.09 in 10.0 mi South 5.8 mph - N/A   Mostly Cloudy
6:15 PM 80.6 °F 83.9 °F 69.8 °F 70% 30.08 in 10.0 mi South 5.8 mph - N/A   Mostly Cloudy
6:35 PM 80.6 °F 82.7 °F 66.2 °F 61% 30.08 in 10.0 mi South 10.4 mph - N/A   Scattered Clouds
6:55 PM 80.6 °F 82.7 °F 66.2 °F 61% 30.07 in 10.0 mi SSW 6.9 mph - N/A   Clear
7:15 PM 78.8 °F - 66.2 °F 65% 30.07 in 10.0 mi SW 4.6 mph - N/A   Clear
7:35 PM 78.8 °F - 66.2 °F 65% 30.07 in 10.0 mi SSW 4.6 mph - N/A   Clear
7:55 PM 78.8 °F - 66.2 °F 65% 30.08 in 10.0 mi SSW 5.8 mph - N/A   Scattered Clouds
8:15 PM 77.0 °F - 66.2 °F 69% 30.08 in 10.0 mi South 3.5 mph - N/A   Scattered Clouds
8:35 PM 77.0 °F - 66.2 °F 69% 30.09 in 10.0 mi South 4.6 mph - N/A   Mostly Cloudy
8:55 PM 77.0 °F - 66.2 °F 69% 30.08 in 10.0 mi Calm Calm - N/A   Mostly Cloudy
9:15 PM 75.2 °F - 66.2 °F 73% 30.08 in 10.0 mi South 3.5 mph - N/A   Scattered Clouds
9:35 PM 75.2 °F - 66.2 °F 73% 30.09 in 10.0 mi South 3.5 mph - N/A   Overcast
9:55 PM 75.2 °F - 66.2 °F 73% 30.09 in 10.0 mi SSE 3.5 mph - N/A   Overcast
10:55 PM 73.4 °F - 66.2 °F 78% 30.09 in 10.0 mi Calm Calm - N/A   Mostly Cloudy
11:35 PM 73.4 °F - 68.0 °F 83% 30.10 in 10.0 mi SSW 4.6 mph - N/A   Overcast
11:55 PM 71.6 °F - 68.0 °F 88% 30.10 in 7.0 mi SSW 9.2 mph - N/A   Overcast